Flight Track Log - Related Links

Times and Time Zones

All times are in EDT time to prevent confusion due to time zone crossing. See the MKU517 flight status page for this flight to view local times or setup timezone preferences in your user account.

Time Position Orientation Groundspeed Altitude Reporting Facility
EDT Latitude Longitude Course Direction KTS MPH feet Rate Location/Type
Mon 23:19:02 21.0000 -156.7333 270° West 180 207 4,900  Level Honolulu Center
Mon 23:20:02 21.0000 -156.7833 250° West 170 196 6,300 1,388 Climbing Honolulu Center
Mon 23:21:03 20.9833 -156.8333 250° West 180 207 7,700 843 Climbing Honolulu Center
Mon 23:22:03 20.9667 -156.8833 270° West 190 219 8,000 150 Climbing Honolulu Center
Mon 23:23:03 20.9667 -156.9500 255° West 220 253 8,000  Level Honolulu Center
Mon 23:24:03 20.9500 -157.0167 270° West 230 265 8,000  Level Honolulu Center
Mon 23:25:04 20.9500 -157.1000 255° West 230 265 8,000  Level Honolulu Center
Mon 23:26:04 20.9333 -157.1667 255° West 230 265 8,000  Level Honolulu Center
Mon 23:27:04 20.9167 -157.2333 270° West 230 265 8,000  Level Honolulu Center
Mon 23:28:04 20.9167 -157.3000 270° West 230 265 8,000 -99 Level Honolulu Center
Mon 23:29:05 20.9167 -157.3667 298° West 240 276 7,800 -347 Descending Honolulu Center
Mon 23:30:05 20.9500 -157.4333 298° West 250 288 7,300 -500 Descending Honolulu Center
Mon 23:31:05 20.9833 -157.5000 285° West 250 288 6,800 -500 Descending Honolulu Center
Mon 23:32:05 21.0000 -157.5667 293° West 250 288 6,300 -744 Descending Honolulu Center
Mon 23:33:06 21.0333 -157.6500 285° West 250 288 5,300 -992 Descending Honolulu Center
Mon 23:34:06 21.0500 -157.7167 298° West 240 276 4,300 -1,000 Descending Honolulu Center
Mon 23:35:06 21.0833 -157.7833 285° West 240 276 3,300 -1,000 Descending Honolulu Center
Mon 23:36:06 21.1000 -157.8500 328° Northwest 240 276 2,300 -893 Descending Honolulu Center
Mon 23:37:07 21.1500 -157.8833 328° Northwest 220 253 1,500 -397 Descending Honolulu Center
Mon 23:38:07 21.2000 -157.9167 343° North 180 207 1,500 -50 Level Honolulu Center
Mon 23:39:08 21.2500 -157.9333 335° Northwest 160 184 1,400 -298 Descending Honolulu Center
Mon 23:40:08 21.2833 -157.9500 335° Northwest 130 150 900 -500 Descending Honolulu Center

Login

Don't have an account? Register now (free) for customized features, flight alerts, and more!